Tracking 35334 objects as of 13-Sep-2026
HD Live streaming from Space Station
objects crossing your sky now

CENTAURI 5 (TYVAK-0212)


CENTAURI 5 (TYVAK-0212) is no longer on orbit
CENTAURI 5 (TYVAK-0212) is classified as:


NORAD ID: 52742
Int'l Code: 2022-057L
Launch date: May 25, 2022
Source: United States (US)
Launch site: AIR FORCE EASTERN TEST RANGE (AFETR)
Decay date: 2024-10-01

Uplink (MHz):
Downlink (MHz): 400.180
Beacon (MHz):
Mode: 9k6 GFSK
Call sign: FLEF3N
Status: Reentered

Your satellite tracking list
Your tracking list is empty




NASA's NSSDC Master Catalog

Two Line Element Set (TLE):
1 52742U 22057L   24275.04409917  .01988587  37722-2  19359-2 0  9998
2 52742  97.5611  57.5090 0005422 263.5602  96.5065 16.12506653131667
Source of the keplerian elements: AFSPC